Regional Weather Roundup
Issued by NWS Upton, NY

Home | Current Version | Previous Version | Text Only | Print | Product List | Glossary On
Versions: 1 2 3 4 5 6 7 8 9 10 11 12 13 14 15 16 17 18 19 20 21 22 23 24 25 26 27 28 29 30 31 32 33 34 35 36 37 38 39 40 41 42 43 44 45 46 47 48 49 50
000
ASUS41 KOKX 202205
RWROKX

REGIONAL WEATHER ROUNDUP
NATIONAL WEATHER SERVICE NEW YORK NY
600 PM EDT MON OCT 20 2014

NOTE: "FAIR" INDICATES FEW OR NO CLOUDS BELOW 12,000 FEET WITH NO
SIGNIFICANT WEATHER AND/OR OBSTRUCTIONS TO VISIBILITY.

NYZ071-072-176-178-NJZ106-104-202300-
NEW YORK CITY METRO AREA


CITY           SKY/WX    TMP DP  RH WIND       PRES   REMARKS
CENTRAL PARK   CLEAR     58  37  45 VRB5      30.00S
LAGUARDIA APRT MOCLDY    60  36  40 SW12      29.97S
KENNEDY INTL   MOCLDY    59  37  44 SW12      29.99S
NEWARK/LIBERTY MOCLDY    60  38  43 S12       29.97F
BRNX BOT. GARD   N/A     57  36  44 S8        29.98R
TETERBORO      CLEAR     60  36  40 S10       29.97R
$$

NYZ177-179-078>081-202300-
LONG ISLAND NEW YORK

CITY           SKY/WX    TMP DP  RH WIND       PRES   REMARKS
FARMINGDALE    PTCLDY    58  41  53 SW13      29.99F
ISLIP          MOCLDY    57  41  55 SW10      29.98S
SHIRLEY        PTCLDY    57  42  57 SW9       30.00S
WESTHAMPTON    PTCLDY    57  40  52 SW12      30.01F
MONTAUK POINT    N/A     56  43  61 VRB7      30.02S
$$

NYZ052-065-067-202300-
HUDSON VALLEY

CITY           SKY/WX    TMP DP  RH WIND       PRES   REMARKS
WHITE PLAINS   CLEAR     52  39  61 CALM      29.97S
NEWBURGH       NOT AVBL
MONTGOMERY     MOCLDY    54  36  50 SW5       29.95S
POUGHKEEPSIE   MOCLDY    58  35  42 S7        29.96R
ALBANY         CLOUDY    52  34  50 S6        29.94S
$$

NJZ001-105-106-008-010-013-015-019>022-104-202300-
NEW JERSEY

CITY           SKY/WX    TMP DP  RH WIND       PRES   REMARKS
NEWARK/LIBERTY MOCLDY    60  38  43 S12       29.97F
TETERBORO      CLEAR     60  36  40 S10       29.97R
CALDWELL       PTCLDY    58  36  43 SW3       29.97S
MORRISTOWN     MOCLDY    59  37  44 W13       29.97S
SOMERVILLE     CLEAR     58  37  45 S7        29.95S
SUSSEX         PTCLDY    58  37  45 CALM      29.95F
ANDOVER          N/A     55  38  52 S3        29.96S
TRENTON        CLEAR     56  38  50 SW7       29.97F
MILLVILLE      PTCLDY    60  44  55 CALM      29.98S
ATLANTIC CITY  PTCLDY    60  46  59 S6        29.99S
WRIGHTSTOWN    PTCLDY    56  41  57 S3        29.96F
TOMS RIVER     PTCLDY    57  41  54 CALM      29.99S
BELMAR         PTCLDY    59  36  41 SW6       29.98S
$$

PAZ047>061-062-071-202300-
EASTERN PENNSYLVANIA

CITY           SKY/WX    TMP DP  RH WIND       PRES   REMARKS
PHILADELPHIA   MOCLDY    60  43  53 SE6       29.97F
ALLENTOWN      MOCLDY    59  39  47 S10G16    29.96S
SCRANTON       CLOUDY    56  37  49 VRB6      29.92F
$$

CTZ002-004>006-009-010-012-RIZ004-006-007-MAZ004-011-015-202300-
SOUTHERN NEW ENGLAND
 IN CT

CITY           SKY/WX    TMP DP  RH WIND       PRES   REMARKS
BRADLEY INTL   CLOUDY    54  36  50 S7        29.97S
HARTFORD       CLOUDY    53  38  56 S5        29.98F
DANBURY        PTCLDY    53  31  42 S5        29.98S
WTRBRY/OXFORD  MOCLDY    54  34  47 SW8       29.97S
BRIDGEPORT     MOCLDY    58  41  53 SW12      29.99S
MERIDEN        CLOUDY    54  37  52 S6        29.98F
NEW HAVEN      MOCLDY    59  40  49 SW10      29.99S
CHESTER        FAIR      54  39  58 SW5       29.99F
GROTON         MOCLDY    55  43  63 SW20      29.99F
WILLIMANTIC    MOCLDY    53  37  54 S5        29.99F

 IN RI

CITY           SKY/WX    TMP DP  RH WIND       PRES   REMARKS
PROVIDENCE     MOCLDY    52  38  58 SW9       30.00R
BLOCK ISLAND   MOCLDY    55  41  58 SW14G21   30.00F
WESTERLY       MOCLDY    56  42  59 SW6       30.01S

 IN MA

CITY           SKY/WX    TMP DP  RH WIND       PRES   REMARKS
BOSTON         MOCLDY    55  32  41 SW12G18   29.98R
WORCESTER      MOCLDY    48  34  58 SW9       29.97S
WESTFIELD      CLOUDY    51  36  56 CALM      29.97S
PROVINCETOWN   PTCLDY    54  37  54 SW12      30.00R
NANTUCKET      PTCLDY    53  41  63 W13G23    30.02S
$$

ANZ330-335-338-340-345-350-353-355-202300-
COASTAL MARINE OBSERVATIONS


STATION/POSITION TIME  SKY/WX   TEMP    WIND        PRES    VSBY  WAVE
                                AIR SEA DIR/SP/G                  HT/PER
                 (UTC)          (F)     (DEG/KT/KT) (MB)    (MI)  (FT/S)
NY HARB ENTRANCE NOT AVBL
4S FIRE IS       2200               63                N/A           4/ 4
20S FIRE ISLAND  2200            60 63  210/ 16/ 19 1015.7          3/ 4
23SW MTP         2200                                 N/A           3/ 4
HUDSON CANYON    2200            60 66  230/ 14/ 17 1016.4          3/ 4
EXECUTION ROCKS  2200            60 64  200/ 10/ 14   N/A
WESTERN LI SOUND 2200            59     180/  8/ 10   N/A           1
CENTRAL LI SOUND 2100            58 64  220/ 16/ 19   N/A           2/ 3
EASTERN LI SOUND 2100            58 64  220/ 17/ 21   N/A
ROBBINS REEF     2200            60     200/ 11/ 13 1013.8
$$


>>>>>>>>>>>>>>>>>>>>>>>>>>>> KEY <<<<<<<<<<<<<<<<<<<<<<<<<<<
>                                                          <
>     SKY/WX - SKY CONDITION/PRESENT WEATHER               <
>     TMP    - TEMPERATURE IN FAHRENHEIT                   <
>     DP     - DEWPOINT IN FAHRENHEIT                      <
>     RH     - RELATIVE HUMIDITY IN PERCENT                <
>     WIND   - DIRECTION AND SPEED IN MPH                  <
>     PRES   - MEAN SEA LEVEL PRESSURE IN INCHES OF HG     <
>     WCI    - WIND CHILL INDEX                            <
>     VSB    - VISIBILITY IN MILES                         <
>     HX     - HEAT INDEX                                  <
>     TC     - TEMPERATURE IN CELSIUS                      <
>     VRB    - VARIABLE WIND DIRECTION                     <
>                                                          <
>>>>>>>>>>>>>>>>>>>>>>>>>>>> KEY <<<<<<<<<<<<<<<<<<<<<<<<<<<




USA.gov is the U.S. government's official web portal to all federal, state and local government web resources and services.